• In Netherlands
  • List of Countries
  • For 7 days
  • Water Temperature
  • Satellite Maps
  • Weather Map
  • Weather Widgets
  • user-avatar
    Login

    Hourly Weather Yeghegnadzor

    Today, 20 November, Monday

    Time Temperature Precipitation Wind Pressure Humidity
    00:00 +7°C° 0 mm 2 mps 652 mmHg 43%
    01:00 +7°C° 0 mm 2 mps 652 mmHg 44%
    02:00 +7°C° 0 mm 2 mps 652 mmHg 46%
    03:00 +7°C° 0 mm 2 mps 652 mmHg 47%
    04:00 +6°C° 0 mm 2 mps 652 mmHg 49%
    05:00 +6°C° 0 mm 2 mps 651 mmHg 50%
    06:00 +6°C° 0 mm 2 mps 651 mmHg 52%
    07:00 +7°C° 0 mm 2 mps 652 mmHg 50%
    08:00 +8°C° 0 mm 3 mps 652 mmHg 48%
    09:00 +9°C° 0 mm 3 mps 652 mmHg 45%
    10:00 +10°C° 0 mm 3 mps 652 mmHg 44%
    11:00 +11°C° 0 mm 3 mps 652 mmHg 43%
    12:00 +11°C° 0 mm 3 mps 651 mmHg 42%
    13:00 +11°C° 0 mm 3 mps 651 mmHg 43%
    14:00 +11°C° 0 mm 3 mps 651 mmHg 45%
    15:00 +11°C° 0 mm 3 mps 650 mmHg 46%
    16:00 +10°C° 0 mm 3 mps 650 mmHg 51%
    17:00 +9°C° 0 mm 2 mps 650 mmHg 56%
    18:00 +8°C° 0 mm 2 mps 650 mmHg 60%
    19:00 +8°C° 0 mm 2 mps 650 mmHg 62%
    20:00 +8°C° 0 mm 2 mps 649 mmHg 64%
    21:00 +7°C° 0 mm 2 mps 649 mmHg 65%
    22:00 +7°C° 0 mm 2 mps 649 mmHg 66%
    23:00 +7°C° 0 mm 2 mps 649 mmHg 67%

    Tomorrow, 21 November, Tuesday

    Time Temperature Precipitation Wind Pressure Humidity
    00:00 +7°C° 0 mm 2 mps 649 mmHg 68%
    01:00 +7°C° 0 mm 2 mps 649 mmHg 68%
    02:00 +7°C° 0 mm 2 mps 648 mmHg 68%
    03:00 +7°C° 0 mm 2 mps 648 mmHg 69%
    04:00 +5°C° 0 mm 3 mps 648 mmHg 69%
    05:00 +5°C° 0 mm 3 mps 648 mmHg 70%
    06:00 +5°C° 0 mm 3 mps 647 mmHg 70%
    07:00 +7°C° 0 mm 3 mps 648 mmHg 66%
    08:00 +8°C° 0 mm 3 mps 648 mmHg 63%
    09:00 +9°C° 0 mm 3 mps 648 mmHg 59%
    10:00 +10°C° 0 mm 3 mps 648 mmHg 57%
    11:00 +11°C° 0 mm 4 mps 647 mmHg 56%
    12:00 +12°C° 0 mm 4 mps 647 mmHg 54%
    13:00 +12°C° 0 mm 4 mps 647 mmHg 54%
    14:00 +12°C° 0 mm 4 mps 647 mmHg 55%
    15:00 +12°C° 0 mm 4 mps 646 mmHg 56%
    16:00 +11°C° 0 mm 3 mps 646 mmHg 59%
    17:00 +10°C° 0 mm 3 mps 646 mmHg 62%
    18:00 +9°C° 0 mm 3 mps 645 mmHg 65%
    19:00 +9°C° 0 mm 3 mps 645 mmHg 65%
    20:00 +8°C° 0 mm 3 mps 645 mmHg 65%
    21:00 +8°C° 0 mm 3 mps 645 mmHg 65%
    22:00 +8°C° 0 mm 3 mps 644 mmHg 68%
    23:00 +8°C° 0 mm 3 mps 644 mmHg 70%

    Day after tomorrow, 22 November, Wednesday

    Time Temperature Precipitation Wind Pressure Humidity
    00:00 +7°C° 0 mm 3 mps 644 mmHg 72%
    01:00 +7°C° 0 mm 3 mps 644 mmHg 73%
    02:00 +7°C° 0 mm 3 mps 643 mmHg 73%
    03:00 +7°C° 0 mm 3 mps 643 mmHg 74%
    04:00 +7°C° 0 mm 3 mps 643 mmHg 75%
    05:00 +7°C° 0 mm 3 mps 643 mmHg 76%
    06:00 +5°C° 0 mm 3 mps 643 mmHg 76%
    07:00 +7°C° 0.5 mm 3 mps 643 mmHg 77%
    08:00 +7°C° 0.5 mm 3 mps 644 mmHg 78%
    09:00 +7°C° 0.5 mm 3 mps 644 mmHg 79%
    10:00 +7°C° 1.3 mm 3 mps 644 mmHg 80%
    11:00 +7°C° 1.3 mm 3 mps 644 mmHg 81%
    12:00 +7°C° 1.3 mm 3 mps 644 mmHg 82%
    13:00 +5°C° 0.9 mm 3 mps 644 mmHg 81%
    14:00 +5°C° 0.9 mm 3 mps 644 mmHg 80%
    15:00 +5°C° 0.9 mm 3 mps 644 mmHg 79%
    16:00 +5°C° 1 mm 2 mps 644 mmHg 80%
    17:00 +5°C° 1 mm 2 mps 645 mmHg 81%
    18:00 +4°C° 1 mm 2 mps 645 mmHg 82%
    19:00 +4°C° 0.7 mm 2 mps 646 mmHg 81%
    20:00 +4°C° 0.7 mm 1 mps 646 mmHg 81%
    21:00 +4°C° 0.7 mm 1 mps 647 mmHg 81%
    22:00 +3°C° 0.1 mm 1 mps 646 mmHg 80%
    23:00 +2°C° 0.1 mm 1 mps 646 mmHg 79%

    23 November, Thursday

    Time Temperature Precipitation Wind Pressure Humidity
    00:00 -1°C° 0.1 mm 2 mps 646 mmHg 78%
    01:00 -1°C° 0.1 mm 2 mps 646 mmHg 76%
    02:00 -1°C° 0.1 mm 2 mps 646 mmHg 74%
    03:00 -1°C° 0.1 mm 2 mps 646 mmHg 72%
    04:00 -1°C° 0.2 mm 2 mps 646 mmHg 74%
    05:00 -1°C° 0.2 mm 2 mps 647 mmHg 76%
    06:00 -1°C° 0.2 mm 2 mps 647 mmHg 78%
    07:00 -1°C° 0.3 mm 2 mps 647 mmHg 79%
    08:00 +1°C° 0.3 mm 2 mps 648 mmHg 80%
    09:00 +1°C° 0.3 mm 2 mps 648 mmHg 81%
    10:00 +1°C° 0.5 mm 2 mps 648 mmHg 82%
    11:00 +1°C° 0.5 mm 2 mps 648 mmHg 83%
    12:00 +1°C° 0.5 mm 2 mps 648 mmHg 83%
    13:00 +1°C° 0.3 mm 2 mps 648 mmHg 82%
    14:00 +1°C° 0.3 mm 2 mps 648 mmHg 81%
    15:00 +1°C° 0.3 mm 2 mps 648 mmHg 79%
    16:00 -1°C° 0.1 mm 2 mps 648 mmHg 80%
    17:00 0°C° 0.1 mm 1 mps 648 mmHg 82%
    18:00 0°C° 0.1 mm 1 mps 649 mmHg 83%
    19:00 -1°C° 0.2 mm 1 mps 649 mmHg 82%
    20:00 -1°C° 0.2 mm 1 mps 649 mmHg 82%
    21:00 -1°C° 0.2 mm 1 mps 649 mmHg 81%
    22:00 -2°C° 0.2 mm 1 mps 649 mmHg 80%
    23:00 -4°C° 0.2 mm 2 mps 649 mmHg 80%

    24 November, Friday

    Time Temperature Precipitation Wind Pressure Humidity
    00:00 -4°C° 0.2 mm 2 mps 649 mmHg 79%
    01:00 -4°C° 0.1 mm 2 mps 649 mmHg 78%
    02:00 -5°C° 0.1 mm 2 mps 649 mmHg 77%
    03:00 -3°C° 0.1 mm 1 mps 649 mmHg 77%
    04:00 -3°C° 0 mm 1 mps 649 mmHg 76%
    05:00 -3°C° 0 mm 1 mps 649 mmHg 76%
    06:00 -4°C° 0 mm 1 mps 649 mmHg 76%
    07:00 -3°C° 0 mm 1 mps 650 mmHg 75%
    08:00 -2°C° 0 mm 1 mps 650 mmHg 74%
    09:00 -2°C° 0 mm 1 mps 651 mmHg 73%
    10:00 -1°C° 0 mm 1 mps 651 mmHg 71%
    11:00 -3°C° 0 mm 2 mps 651 mmHg 70%
    12:00 -2°C° 0 mm 2 mps 651 mmHg 68%
    13:00 -2°C° 0 mm 2 mps 651 mmHg 68%
    14:00 -2°C° 0 mm 2 mps 651 mmHg 68%
    15:00 -1°C° 0 mm 1 mps 651 mmHg 68%
    16:00 -4°C° 0 mm 2 mps 651 mmHg 70%
    17:00 -5°C° 0 mm 2 mps 651 mmHg 72%
    18:00 -7°C° 0 mm 2 mps 651 mmHg 73%
    19:00 -7°C° 0 mm 2 mps 651 mmHg 72%
    20:00 -7°C° 0 mm 2 mps 651 mmHg 72%
    21:00 -7°C° 0 mm 2 mps 652 mmHg 71%
    22:00 -8°C° 0 mm 2 mps 652 mmHg 73%
    23:00 -8°C° 0 mm 2 mps 652 mmHg 74%

    25 November, Saturday

    Time Temperature Precipitation Wind Pressure Humidity
    00:00 -8°C° 0 mm 2 mps 652 mmHg 75%
    01:00 -8°C° 0 mm 2 mps 652 mmHg 76%
    02:00 -7°C° 0 mm 2 mps 652 mmHg 76%
    03:00 -7°C° 0 mm 2 mps 652 mmHg 77%
    04:00 -7°C° 0.1 mm 2 mps 652 mmHg 77%
    05:00 -8°C° 0.1 mm 3 mps 652 mmHg 77%
    06:00 -7°C° 0.1 mm 3 mps 652 mmHg 77%
    07:00 -6°C° 0.1 mm 3 mps 652 mmHg 77%
    08:00 -5°C° 0.1 mm 3 mps 652 mmHg 77%
    09:00 -4°C° 0.1 mm 3 mps 652 mmHg 77%
    10:00 -2°C° 0.3 mm 3 mps 652 mmHg 77%
    11:00 -2°C° 0.3 mm 3 mps 651 mmHg 77%
    12:00 -1°C° 0.3 mm 3 mps 651 mmHg 77%
    13:00 -1°C° 0.5 mm 3 mps 651 mmHg 78%
    14:00 -1°C° 0.5 mm 3 mps 651 mmHg 80%
    15:00 -1°C° 0.5 mm 2 mps 650 mmHg 82%
    16:00 -2°C° 0.3 mm 2 mps 651 mmHg 84%
    17:00 -2°C° 0.3 mm 2 mps 651 mmHg 85%
    18:00 -3°C° 0.3 mm 2 mps 652 mmHg 87%
    19:00 -3°C° 0.1 mm 2 mps 652 mmHg 87%
    20:00 -3°C° 0.1 mm 2 mps 652 mmHg 87%
    21:00 -4°C° 0.1 mm 2 mps 653 mmHg 87%
    22:00 -5°C° 0 mm 2 mps 653 mmHg 86%
    23:00 -5°C° 0 mm 2 mps 653 mmHg 85%
    Show more